East Taunton, MA

10:17 PM EST on February 19, 2017 (GMT -0500)
Taunton Municipal

Weather History for KTAN - August, 2014

Change the Weather History Date:

Tuesday, August 12, 2014

  Actual Average Record
Temperature  
Mean Temperature 68 °F -  
Max Temperature 82 °F 79 °F 93 °F (2002)
Min Temperature 54 °F 59 °F 44 °F (1974)
Cooling Degree Days 2    
Growing Degree Days 18 (Base 50)    
Moisture  
Dew Point 58 °F    
Average Humidity 85    
Maximum Humidity 100    
Minimum Humidity 47    
Precipitation  
Precipitation 0.00 in - - ()
Sea Level Pressure  
Sea Level Pressure 30.11 in    
Wind  
Wind Speed 2 mph (SE)    
Max Wind Speed 13 mph    
Max Gust Speed 21 mph    
Visibility 5 miles    
Events Fog    
Averages and records for this station are not official NWS values.
T = Trace of Precipitation, MM = Missing Value Source: NWS Daily Summary

Daily Weather History Graph

Daily Weather History Graph

Search for Another Location

Airport or City:

Trip Planner

Search our weather history database for the weather conditions in past years. The results will help you decide how hot, cold, wet, or windy it might be!

Date:

Astronomy

Aug. 12, 2014 Rise Set
Actual Time 5:49 AM EDT 7:48 PM EDT
Civil Twilight 5:18 AM EDT 8:18 PM EDT
Nautical Twilight 4:41 AM EDT 8:55 PM EDT
Astronomical Twilight 4:01 AM EDT 9:35 PM EDT
Moon 8:50 PM EDT (8/12) 8:05 AM EDT (8/12)
Length of Visible Light 14h 59m
Length of Day
13h 59m
Waning Gibbous, 95% of the Moon is Illuminated
Aug 12
Waning Gibbous
Aug 17
Last Quarter
Aug 25
New
Sep 2
First Quarter
Sep 8
Full

Hourly Weather History & Observations

Time (EDT) Temp. Heat Index Dew Point Humidity Pressure Visibility Wind Dir Wind Speed Gust Speed Precip Events Conditions
12:14 AM 57.9 °F - 57.0 °F 97% 30.13 in 1.8 mi Calm Calm - N/A   Clear
12:18 AM 57.9 °F - 55.9 °F 93% 30.13 in 0.8 mi Calm Calm - N/A   Clear
12:27 AM 57.9 °F - 55.9 °F 93% 30.13 in 1.5 mi Calm Calm - N/A   Clear
12:39 AM 57.0 °F - 55.9 °F 96% 30.13 in 4.0 mi Calm Calm - N/A   Clear
12:52 AM 57.9 °F - 55.9 °F 93% 30.13 in 1.8 mi Calm Calm - N/A   Clear
1:02 AM 57.0 °F - 55.9 °F 96% 30.13 in 0.8 mi Calm Calm - N/A   Clear
1:30 AM 55.9 °F - 55.0 °F 97% 30.13 in 0.5 mi Calm Calm - N/A Fog Fog
1:37 AM 57.0 °F - 55.9 °F 96% 30.13 in 1.2 mi Calm Calm - N/A   Partly Cloudy
1:39 AM 57.0 °F - 55.9 °F 96% 30.13 in 2.5 mi Calm Calm - N/A   Partly Cloudy
1:45 AM 55.9 °F - 55.0 °F 97% 30.13 in 1.2 mi Calm Calm - N/A   Partly Cloudy
1:49 AM 55.4 °F - 55.4 °F 100% 30.13 in 0.8 mi Calm Calm - N/A   Mist
1:52 AM 55.9 °F - 55.0 °F 97% 30.13 in 0.8 mi Calm Calm - N/A   Mist
2:12 AM 55.9 °F - 55.0 °F 97% 30.13 in 0.5 mi Calm Calm - N/A Fog Fog
2:52 AM 55.0 °F - 54.0 °F 96% 30.12 in 1.8 mi Calm Calm - N/A   Clear
3:00 AM 55.0 °F - 54.0 °F 96% 30.12 in 2.0 mi Calm Calm - N/A   Clear
3:03 AM 55.9 °F - 55.0 °F 97% 30.12 in 1.2 mi Calm Calm - N/A   Clear
3:11 AM 55.0 °F - 54.0 °F 96% 30.12 in 0.8 mi Calm Calm - N/A   Mist
3:25 AM 55.0 °F - 54.0 °F 96% 30.12 in 1.2 mi Calm Calm - N/A   Partly Cloudy
3:28 AM 55.0 °F - 54.0 °F 96% 30.12 in 2.0 mi Calm Calm - N/A   Partly Cloudy
3:42 AM 55.0 °F - 54.0 °F 96% 30.12 in 1.5 mi Calm Calm - N/A   Partly Cloudy
3:52 AM 55.0 °F - 54.0 °F 96% 30.12 in 2.0 mi Calm Calm - N/A   Clear
4:00 AM 55.0 °F - 54.0 °F 96% 30.12 in 1.2 mi Calm Calm - N/A   Clear
4:09 AM 54.0 °F - 54.0 °F 100% 30.12 in 0.8 mi Calm Calm - N/A   Clear
4:13 AM 54.0 °F - 53.1 °F 97% 30.12 in 1.5 mi Calm Calm - N/A   Clear
4:15 AM 55.0 °F - 54.0 °F 96% 30.12 in 3.0 mi Calm Calm - N/A   Clear
5:52 AM 55.0 °F - 54.0 °F 96% 30.12 in 10.0 mi Calm Calm - N/A   Clear
6:52 AM 59.0 °F - 57.9 °F 96% 30.12 in 10.0 mi North - - N/A   Clear
8:52 AM 73.9 °F - 64.9 °F 73% 30.13 in 10.0 mi Variable 6.9 mph - N/A   Clear
9:52 AM 75.9 °F - 64.9 °F 69% 30.12 in 10.0 mi SSE 6.9 mph - N/A   Partly Cloudy
10:52 AM 77.0 °F - 64.0 °F 64% 30.12 in 10.0 mi SSE 6.9 mph - N/A   Partly Cloudy
11:52 AM 80.1 °F 81.1 °F 61.0 °F 52% 30.11 in 10.0 mi SE 11.5 mph 20.7 mph N/A   Scattered Clouds
1:52 PM 81.0 °F 81.3 °F 59.0 °F 47% 30.10 in 10.0 mi SSE 8.1 mph 19.6 mph N/A   Partly Cloudy
2:52 PM 80.1 °F 81.1 °F 61.0 °F 52% 30.09 in 10.0 mi SE 12.7 mph 18.4 mph N/A   Mostly Cloudy
3:52 PM 80.1 °F 81.1 °F 61.0 °F 52% 30.08 in 10.0 mi SSE 8.1 mph 19.6 mph N/A   Scattered Clouds
4:52 PM 78.1 °F - 61.0 °F 56% 30.07 in 10.0 mi South 9.2 mph - N/A   Scattered Clouds
5:52 PM 77.0 °F - 62.1 °F 60% 30.07 in 10.0 mi Variable 6.9 mph - N/A   Scattered Clouds
6:52 PM 73.9 °F - 63.0 °F 68% 30.06 in 10.0 mi SE 5.8 mph - N/A   Partly Cloudy
7:52 PM 73.0 °F - 63.0 °F 71% 30.04 in 10.0 mi SE 5.8 mph - N/A   Clear
8:52 PM 71.1 °F - 64.0 °F 78% 30.04 in 10.0 mi ESE 6.9 mph - N/A   Partly Cloudy
9:52 PM 71.1 °F - 64.9 °F 81% 30.04 in 10.0 mi SE 8.1 mph - N/A   Clear
10:52 PM 71.1 °F - 64.0 °F 78% 30.03 in 10.0 mi SE 8.1 mph - N/A   Clear
11:52 PM 72.0 °F - 63.0 °F 73% 30.02 in 10.0 mi ESE 9.2 mph - N/A   Clear